Diyarbakir, Turkey

6:48 AM +03 on May 30, 2017 (GMT +0300)
Diyarbakir

Weather History for LTCC - April, 2014

Change the Weather History Date:

Tuesday, April 8, 2014

  Actual Average Record
Temperature  
Mean Temperature 60 °F -  
Max Temperature 72 °F 71 °F 83 °F (2013)
Min Temperature 48 °F 48 °F 33 °F (1997)
Degree Days  
Heating Degree Days 5    
Growing Degree Days 10 (Base 50)    
Moisture  
Dew Point 39 °F    
Average Humidity 46    
Maximum Humidity 72    
Minimum Humidity 14    
Precipitation  
Precipitation 0.00 in 0.09 in - ()
Sea Level Pressure  
Sea Level Pressure 29.84 in    
Wind  
Wind Speed 6 mph ()    
Max Wind Speed 23 mph    
Max Gust Speed -    
Visibility 7.4 miles    
Events Rain , Thunderstorm    
Averages and records for this station are not official NWS values.
T = Trace of Precipitation, MM = Missing Value Source: Averaged Metar Reports

Daily Weather History Graph

Daily Weather History Graph

Search for Another Location

Airport or City:

Trip Planner

Search our weather history database for the weather conditions in past years. The results will help you decide how hot, cold, wet, or windy it might be!

Date:

Astronomy

Apr. 08, 2014 Rise Set
Actual Time 5:54 AM EEST 6:48 PM EEST
Civil Twilight 5:27 AM EEST 7:15 PM EEST
Nautical Twilight 4:56 AM EEST 7:46 PM EEST
Astronomical Twilight 4:23 AM EEST 8:19 PM EEST
Moon 12:28 PM EEST (4/8) 1:47 AM EEST (4/8)
Length of Visible Light 13h 47m
Length of Day
12h 53m
First Quarter, 60% of the Moon is Illuminated
Apr 8
First Quarter
Apr 15
Full
Apr 22
Last Quarter
Apr 29
New
May 7
First Quarter

Hourly Weather History & Observations

Time (EEST) Temp. Dew Point Humidity Pressure Visibility Wind Dir Wind Speed Gust Speed Precip Events Conditions
12:00 AM 55 °F 41 °F 49% 29.86 in 12 mi Calm Calm - -  
12:20 AM 57.2 °F 41.0 °F 55% 29.92 in - Calm Calm - N/A   Clear
12:50 AM 55.4 °F 41.0 °F 58% 29.92 in - Calm Calm - N/A   Clear
1:20 AM 53.6 °F 41.0 °F 62% 29.89 in - North 4.6 mph - N/A   Clear
1:50 AM 55.4 °F 41.0 °F 58% 29.89 in - Calm Calm - N/A   Clear
2:20 AM 53.6 °F 41.0 °F 62% 29.89 in - Calm Calm - N/A   Clear
3:00 AM 52 °F 40 °F 52% 29.82 in 12 mi Calm Calm - -  
3:20 AM 51.8 °F 41.0 °F 67% 29.86 in - Calm Calm - N/A   Clear
3:50 AM 50.0 °F 39.2 °F 66% 29.86 in - Calm Calm - N/A   Clear
4:20 AM 51.8 °F 39.2 °F 62% 29.86 in - Calm Calm - N/A   Clear
4:50 AM 50.0 °F 39.2 °F 66% 29.86 in - Calm Calm - N/A   Clear
5:20 AM 50.0 °F 39.2 °F 66% 29.86 in - Calm Calm - N/A   Clear
5:50 AM 50.0 °F 39.2 °F 66% 29.86 in - Calm Calm - N/A   Clear
6:00 AM 50 °F 39 °F 57% 29.82 in 12 mi Calm Calm - -   Clear
6:20 AM 50.0 °F 39.2 °F 66% 29.86 in - Calm Calm - N/A   Clear
6:50 AM 51.8 °F 41.0 °F 67% 29.86 in - Calm Calm - N/A   Clear
7:20 AM 53.6 °F 44.6 °F 72% 29.86 in - Calm Calm - N/A   Clear
7:50 AM 60.8 °F 41.0 °F 48% 29.89 in - Calm Calm - N/A   Clear
8:20 AM 62.6 °F 41.0 °F 45% 29.86 in - Variable 1.2 mph - N/A   Clear
8:50 AM 64.4 °F 42.8 °F 45% 29.86 in - ESE 4.6 mph - N/A   Clear
9:00 AM 64 °F 42 °F 33% 29.81 in 12 mi ESE 4.6 mph - -   Scattered Clouds
9:20 AM 66.2 °F 42.8 °F 43% 29.86 in - Variable 2.3 mph - N/A   Clear
9:50 AM 68.0 °F 44.6 °F 43% 29.86 in - Variable 2.3 mph - N/A   Clear
10:20 AM 71.6 °F 39.2 °F 31% 29.86 in - SSW 13.8 mph - N/A   Clear
10:50 AM 71.6 °F 35.6 °F 27% 29.86 in - SSW 15.0 mph - N/A   Clear
11:20 AM 73.4 °F 37.4 °F 27% 29.83 in - South 16.1 mph - N/A   Clear
11:50 AM 69.8 °F 30.2 °F 23% 29.83 in 6.2 mi South 13.8 mph - N/A   Mostly Cloudy
12:00 PM 69 °F 32 °F 15% 29.78 in 12 mi South 13.8 mph - -   Scattered Clouds
12:20 PM 69.8 °F 39.2 °F 33% 29.83 in 6.2 mi South 17.3 mph - N/A   Mostly Cloudy
12:50 PM 71.6 °F 35.6 °F 27% 29.83 in 6.2 mi South 18.4 mph - N/A   Mostly Cloudy
1:20 PM 71.6 °F 35.6 °F 27% 29.83 in 6.2 mi South 16.1 mph - N/A   Mostly Cloudy
1:50 PM 71.6 °F 32.0 °F 23% 29.80 in 6.2 mi SSW 20.7 mph - N/A   Mostly Cloudy
2:20 PM 71.6 °F 30.2 °F 22% 29.80 in 6.2 mi South 18.4 mph - N/A   Mostly Cloudy
2:50 PM 71.6 °F 37.4 °F 29% 29.80 in 6.2 mi South 17.3 mph - N/A   Scattered Clouds
3:00 PM 72 °F 34 °F 14% 29.74 in 12 mi South 17.3 mph - -   Scattered Clouds
3:20 PM 71.6 °F 32.0 °F 23% 29.80 in 6.2 mi SSW 18.4 mph - N/A   Scattered Clouds
3:50 PM 69.8 °F 32.0 °F 25% 29.77 in 6.2 mi SW 15.0 mph - N/A   Scattered Clouds
4:20 PM 69.8 °F 33.8 °F 27% 29.77 in 6.2 mi SW 18.4 mph - N/A   Scattered Clouds
4:50 PM 68.0 °F 33.8 °F 28% 29.77 in 6.2 mi SW 17.3 mph - N/A   Scattered Clouds
5:20 PM 68.0 °F 37.4 °F 33% 29.80 in 6.2 mi SSW 17.3 mph - N/A   Scattered Clouds
5:50 PM 66.2 °F 35.6 °F 32% 29.80 in 6.2 mi SSW 16.1 mph - N/A   Scattered Clouds
6:00 PM 67 °F 36 °F 21% 29.76 in 6 mi SSW 16.1 mph - -   Partly Cloudy
6:20 PM 64.4 °F 39.2 °F 40% 29.80 in 6.2 mi SSW 16.1 mph - N/A   Scattered Clouds
6:50 PM 64.4 °F 39.2 °F 40% 29.80 in 6.2 mi SSW 13.8 mph - N/A   Mostly Cloudy
7:20 PM 62.6 °F 42.8 °F 48% 29.83 in 6.2 mi WSW 23.0 mph - N/A Rain Light Rain Showers
7:31 PM 62.6 °F 42.8 °F 48% 29.83 in 6.2 mi WSW 23.0 mph - N/A Rain , Thunderstorm Light Thunderstorms and Rain
7:50 PM 60.8 °F 44.6 °F 55% 29.83 in 6.2 mi WSW 15.0 mph - N/A Thunderstorm Thunderstorm
8:03 PM 59.0 °F 44.6 °F 59% 29.86 in 6.2 mi WSW 10.4 mph - N/A   Mostly Cloudy
8:20 PM 57.2 °F 44.6 °F 63% 29.86 in 6.2 mi WSW 9.2 mph - N/A   Scattered Clouds
8:50 PM 55.4 °F 41.0 °F 58% 29.86 in - West 11.5 mph - N/A   Clear
9:00 PM 56 °F 41 °F 46% 29.82 in 6 mi West 11.5 mph - - Thunderstorm Light Thunderstorm
9:20 PM 57.2 °F 41.0 °F 55% 29.86 in - West 18.4 mph - N/A   Clear
9:50 PM 55.4 °F 41.0 °F 58% 29.89 in - West 17.3 mph - N/A   Clear
10:20 PM 55.4 °F 41.0 °F 58% 29.89 in - West 10.4 mph - N/A   Clear
10:50 PM 55.4 °F 39.2 °F 54% 29.89 in - WSW 16.1 mph - N/A   Clear
11:20 PM 53.6 °F 41.0 °F 62% 29.89 in - West 10.4 mph - N/A   Clear
11:50 PM 53.6 °F 41.0 °F 62% 29.86 in - WSW 5.8 mph - N/A   Clear